15 daagse weersverwachting Narvik (NO)

  • Overzicht
  • Per uur
  • 15 dagen
  • Extra
  • Vergelijk
  • Kaarten
  • Dagkaart
  • Meer »
  • Info
  • Statistieken
  • Directe link
    Temp 6h Neerslag Wind  
Midzomernacht Vandaag
02:00
10°
 
1
08:00
14°
 
2
14:00
14°
 
4
20:00
11°
 
3
Midzomernacht Morgen
02:00
 
1
08:00
10°
 
1
14:00
12°
 
2
20:00
11°
0.8 mm
2
Midzomernacht Woensdag 19 Jun
02:00
10°
 
1
08:00
10°
1.9 mm
2
14:00
11°
2.5 mm
4
20:00
12°
0.8 mm
4
Locatie info
Region: Nordland
Latitude: 68.4395°N
Longitude: 17.4301°E
100 masl
Postcode: 8514
Temp/Neerslag /Baro Onweer/Dauwpunt
    Temp Baro 1h Neerslag Dauwpunt Wind UV Bewolking  
Midzomernacht Vandaag
02:00
10°
1009.3 hPa   5.7°
1
Windvlaag: 1.7 km/h
0%
03:00
10°
1009.2 hPa   5.0°
1
Windvlaag: 1.6 km/h
0%
04:00
11°
1009.1 hPa   5.1°
1
Windvlaag: 1.7 km/h
0%
05:00
11°
1008.9 hPa   5.8°
1
Windvlaag: 1.2 km/h
0%
06:00
12°
1008.7 hPa   6.1°
1
Windvlaag: 2.1 km/h
0%
07:00
13°
1008.8 hPa   6.0°
1
Windvlaag: 3 km/h
0%
08:00
14°
1008.8 hPa   6.1°
2
Windvlaag: 3.3 km/h
0%
09:00
14°
1008.9 hPa   6.1°
2
Windvlaag: 3 km/h
0%
10:00
14°
1009.1 hPa   5.9°
3
Windvlaag: 3.8 km/h
0%
11:00
15°
1009.2 hPa   6.6°
4
Windvlaag: 6.1 km/h
1%
12:00
14°
1009.4 hPa   6.9°
4
Windvlaag: 6.1 km/h
1%
13:00
14°
1009.8 hPa   6.4°
4
Windvlaag: 6.4 km/h
5%
14:00
14°
1010.2 hPa   6.5°
4
Windvlaag: 6.3 km/h
8%
15:00
13°
1010.4 hPa   6.9°
4
Windvlaag: 6.3 km/h
9%
16:00
13°
1010.5 hPa   7.0°
4
Windvlaag: 5.9 km/h
16%
17:00
13°
1010.4 hPa   6.9°
4
Windvlaag: 5.6 km/h
32%
18:00
13°
1010.4 hPa   6.9°
4
Windvlaag: 5.6 km/h
35%
19:00
12°
1010.3 hPa   6.8°
3
Windvlaag: 5.7 km/h
38%
20:00
11°
1010.4 hPa   6.5°
3
Windvlaag: 5.4 km/h
35%
21:00
10°
1010.4 hPa   6.5°
3
Windvlaag: 4.9 km/h
27%
22:00
10°
Voelt als: 8.5°
1010.5 hPa   6.6°
2
Windvlaag: 4.6 km/h
25%
23:00
Voelt als: 8.1°
1010.5 hPa   6.7°
2
Windvlaag: 4.2 km/h
35%
Midzomernacht Morgen
00:00
Voelt als: 7.8°
1010.5 hPa   6.7°
2
Windvlaag: 3.6 km/h
49%
01:00
Voelt als: 7.7°
1010.5 hPa   6.6°
2
Windvlaag: 3.1 km/h
49%
02:00
Voelt als: 7.9°
1010.3 hPa   6.4°
1
Windvlaag: 2.3 km/h
47%
03:00
Voelt als: 8.1°
1010.2 hPa   6.3°
1
Windvlaag: 2 km/h
47%
04:00
1009.7 hPa   6.5°
1
Windvlaag: 1.6 km/h
29%
05:00
Voelt als: 8.5°
1009.5 hPa
21%
6.5°
1
Windvlaag: 2 km/h
21%
06:00
Voelt als: 8.9°
1009.1 hPa   6.5°
1
Windvlaag: 2.3 km/h
55%
07:00
1008.8 hPa   6.1°
1
Windvlaag: 2.9 km/h
64%
08:00
10°
Voelt als: 9.9°
1008.5 hPa
22%
5.9°
1
Windvlaag: 3 km/h
75%
09:00
10°
1008.4 hPa
24%
5.8°
1
Windvlaag: 2.7 km/h
84%
10:00
10°
1008.4 hPa
24%
6.3°
1
Windvlaag: 2.5 km/h
80%
11:00
11°
1008.4 hPa
13%
6.4°
1
Windvlaag: 3.3 km/h
61%
12:00
11°
1008.2 hPa   6.2°
2
Windvlaag: 3.9 km/h
82%
13:00
12°
1008.0 hPa   5.7°
2
Windvlaag: 3.6 km/h
50%
14:00
12°
1007.8 hPa
13%
5.1°
2
Windvlaag: 4.1 km/h
38%
15:00
12°
1007.8 hPa
43%
5.4°
3
Windvlaag: 4.8 km/h
61%
16:00
12°
1007.8 hPa
82%
6.8°
3
Windvlaag: 4.6 km/h
53%
17:00
12°
1007.7 hPa
82%
6.7°
2
Windvlaag: 4.5 km/h
47%
18:00
12°
1007.4 hPa 0.5 mm
82%
6.4°
2
Windvlaag: 4 km/h
50%
19:00
11°
1007.1 hPa 0.3 mm
82%
5.9°
2
Windvlaag: 5 km/h
87%
20:00
11°
1007.0 hPa
82%
5.9°
2
Windvlaag: 5.1 km/h
76%
21:00
11°
1006.9 hPa
36%
6.0°
2
Windvlaag: 4.2 km/h
77%
22:00
11°
1007.0 hPa
28%
6.3°
2
Windvlaag: 3.9 km/h
60%
23:00
11°
1007.3 hPa
32%
6.5°
1
Windvlaag: 3.4 km/h
15%
Midzomernacht Woensdag 19 Jun
00:00
11°
1007.2 hPa
22%
6.6°
1
Windvlaag: 2.8 km/h
16%
01:00
11°
1007.1 hPa
22%
5.8°
1
Windvlaag: 2.5 km/h
20%
02:00
10°
1006.9 hPa
31%
5.3°
1
Windvlaag: 2.4 km/h
32%
03:00
10°
1006.7 hPa
97%
6.0°
1
Windvlaag: 2.2 km/h
42%
04:00
10°
1006.7 hPa
50%
6.3°
1
Windvlaag: 2.1 km/h
80%
05:00
10°
Voelt als: 9.2°
1006.6 hPa 0.4 mm
100%
8.0°
2
Windvlaag: 3.4 km/h
84%
06:00
10°
1006.7 hPa 0.5 mm
100%
8.3°
1
Windvlaag: 2.9 km/h
83%
07:00
10°
1006.8 hPa
100%
9.1°
1
Windvlaag: 2.3 km/h
87%
08:00
10°
Voelt als: 8.6°
1007.2 hPa 1.0 mm
100%
8.9°
2
Windvlaag: 4.3 km/h
89%
09:00
Voelt als: 7.6°
1008.1 hPa 0.5 mm
100%
8.5°
3
Windvlaag: 5.8 km/h
73%
10:00
10°
1008.3 hPa 0.5 mm
100%
8.1°
3
Windvlaag: 5.5 km/h
64%
11:00
11°
1008.7 hPa 0.5 mm
100%
8.1°
3
Windvlaag: 5.2 km/h
78%
12:00
11°
1008.9 hPa 0.5 mm
100%
7.6°
3
Windvlaag: 5.7 km/h
82%
13:00
11°
1009.0 hPa
100%
7.3°
3
Windvlaag: 6.4 km/h
76%
14:00
11°
1009.3 hPa 0.5 mm
100%
6.8°
4
Windvlaag: 6.8 km/h
67%
15:00
11°
1009.4 hPa
100%
7.3°
4
Windvlaag: 8.5 km/h
80%
16:00
12°
1009.5 hPa
100%
7.5°
4
Windvlaag: 7.4 km/h
80%
17:00
12°
1009.6 hPa 0.8 mm
100%
7.8°
4
Windvlaag: 8.3 km/h
78%
18:00
12°
1009.6 hPa
100%
7.9°
4
Windvlaag: 8.7 km/h
71%
19:00
12°
1009.7 hPa
100%
8.1°
4
Windvlaag: 9.5 km/h
46%
20:00
12°
1009.8 hPa
97%
8.4°
4
Windvlaag: 1.4 km/h
45%
21:00
12°
1010.0 hPa
97%
8.4°
3
Windvlaag: 9.8 km/h
43%
22:00
11°
1010.4 hPa
54%
8.3°
3
Windvlaag: 8.3 km/h
41%
23:00
11°
1010.7 hPa
45%
8.2°
2
Windvlaag: 6.6 km/h
45%
Midzomernacht Donderdag 20 Jun
00:00
10°
1010.9 hPa
35%
8.3°
2
Windvlaag: 5.6 km/h
56%
01:00
10°
1011.0 hPa
40%
8.4°
1
Windvlaag: 3 km/h
78%
Temp/Neerslag /Baro Onweer/Dauwpunt
    Temp Baro Neerslag Dauwpunt Wind Bewolking  
Midzomernacht Vandaag
02:00
10°
1009.3 hPa   5.7°
1
0%
05:00
11°
1008.9 hPa   5.8°
1
0%
08:00
14°
1008.8 hPa   6.1°
2
0%
11:00
15°
1009.2 hPa   6.6°
4
1%
14:00
14°
1010.2 hPa   6.5°
4
8%
17:00
13°
1010.4 hPa   6.9°
4
32%
20:00
11°
1010.4 hPa   6.5°
3
35%
23:00
Voelt als: 8.1°
1010.5 hPa   6.7°
2
35%
Midzomernacht Morgen
02:00
Voelt als: 7.9°
1010.3 hPa   6.4°
1
47%
05:00
Voelt als: 8.5°
1009.5 hPa   6.5°
1
21%
08:00
10°
Voelt als: 9.9°
1008.5 hPa   5.9°
1
75%
11:00
11°
1008.4 hPa   6.4°
1
61%
14:00
12°
1007.8 hPa   5.1°
2
38%
17:00
12°
1007.7 hPa   6.7°
2
47%
20:00
11°
1007.0 hPa 0.8 mm 5.9°
2
76%
23:00
11°
1007.3 hPa   6.5°
1
15%
Midzomernacht Woensdag 19 Jun
02:00
10°
1006.9 hPa   5.3°
1
32%
05:00
10°
Voelt als: 9.2°
1006.6 hPa 0.4 mm 8.0°
2
84%
08:00
10°
Voelt als: 8.6°
1007.2 hPa 1.5 mm 8.9°
2
89%
11:00
11°
1008.7 hPa 1.5 mm 8.1°
3
78%
14:00
11°
1009.3 hPa 1.0 mm 6.8°
4
67%
17:00
12°
1009.6 hPa 0.8 mm 7.8°
4
78%
20:00
12°
1009.8 hPa   8.4°
4
45%
23:00
11°
1010.7 hPa   8.2°
2
45%
Midzomernacht Donderdag 20 Jun
02:00
10°
1011.2 hPa   8.4°
1
68%
05:00
11°
1011.2 hPa 6.1 mm 7.3°
1
64%
08:00
11°
1010.9 hPa 6.3 mm 6.9°
1
65%
11:00
14°
1009.7 hPa 6.3 mm 6.6°
1
76%
14:00
17°
1008.4 hPa 6.3 mm 5.5°
1
87%
17:00
17°
1006.9 hPa 6.3 mm 6.4°
2
89%
20:00
16°
1005.5 hPa 6.6 mm 7.5°
2
91%
23:00
15°
1004.8 hPa 6.7 mm 8.5°
2
91%
Midzomernacht Vrijdag 21 Jun
02:00
13°
1004.0 hPa 7.1 mm 9.0°
3
92%
05:00
13°
1004.5 hPa 7.7 mm 9.2°
3
91%
08:00
13°
1005.0 hPa 12.5 mm 9.6°
3
90%
11:00
14°
1006.0 hPa 18.4 mm 9.3°
3
90%
14:00
14°
1007.0 hPa 20.4 mm 9.1°
3
91%
17:00
14°
1007.5 hPa 21.0 mm 9.5°
3
91%
20:00
13°
1007.9 hPa 21.2 mm 9.9°
2
90%
23:00
12°
1007.0 hPa 21.2 mm 9.8°
2
91%
Midzomernacht Zaterdag 22 Jun
02:00
11°
1006.1 hPa 21.2 mm 9.6°
1
92%
05:00
11°
1005.5 hPa 21.2 mm 9.4°
2
92%
08:00
11°
1004.9 hPa 21.2 mm 9.2°
3
92%
11:00
12°
1004.6 hPa 21.2 mm 9.4°
3
92%
14:00
12°
1004.4 hPa 21.2 mm 9.4°
3
92%
17:00
12°
1005.7 hPa 21.2 mm 9.7°
3
92%
20:00
11°
1007.0 hPa 21.3 mm 9.7°
4
92%
23:00
10°
1008.2 hPa 24.6 mm 9.1°
3
92%
Midzomernacht Zondag 23 Jun
02:00
Voelt als: 7.5°
1009.5 hPa 27.2 mm 8.3°
3
92%
05:00
Voelt als: 7.2°
1009.9 hPa 29.9 mm 8.0°
4
92%
08:00
Voelt als: 7.1°
1010.4 hPa 30.6 mm 7.8°
4
92%
11:00
10°
1012.9 hPa 31.0 mm 7.9°
5
92%
14:00
11°
1015.5 hPa 31.5 mm 8.2°
5
92%
17:00
11°
1016.8 hPa 31.5 mm 8.2°
4
92%
20:00
10°
1018.1 hPa 31.5 mm 8.3°
4
92%
23:00
10°
Voelt als: 7.8°
1018.9 hPa   7.8°
3
92%
Midzomernacht Maandag 24 Jun
02:00
Voelt als: 7.2°
1019.6 hPa 63.1 mm 7.4°
3
92%
08:00
Voelt als: 8.2°
1020.6 hPa 63.2 mm 6.5°
2
89%
14:00
12°
1023.6 hPa 64.5 mm 7.3°
3
91%
20:00
11°
1022.8 hPa 65.3 mm 6.9°
2
75%
Midzomernacht Dinsdag 25 Jun
02:00
Voelt als: 9.0°
1024.8 hPa 65.6 mm 7.1°
1
86%
08:00
10°
1022.7 hPa 65.8 mm 6.2°
2
70%
14:00
13°
1022.8 hPa 67.1 mm 6.8°
3
88%
20:00
12°
1022.3 hPa 68.5 mm 8.0°
2
86%
Midzomernacht Woensdag 26 Jun
02:00
Voelt als: 8.5°
1022.7 hPa 69.9 mm 6.8°
1
87%
08:00
10°
Voelt als: 8.5°
1019.3 hPa 70.2 mm 6.2°
2
89%
14:00
10°
1018.8 hPa 70.7 mm 3.7°
2
0%
20:00
13°
1017.0 hPa 0.9 mm 6.9°
2
69%
Midzomernacht Donderdag 27 Jun
02:00
Voelt als: 9.0°
1016.9 hPa 1.3 mm 6.8°
1
61%
08:00
11°
1015.4 hPa 1.0 mm 6.5°
1
59%
14:00
14°
1013.9 hPa 0.9 mm 6.1°
1
59%
20:00
14°
1012.5 hPa 1.0 mm 6.6°
1
56%
Midzomernacht Vrijdag 28 Jun
02:00
10°
Voelt als: 9.9°
1012.0 hPa 0.7 mm 7.2°
0
45%
08:00
12°
1010.4 hPa 0.7 mm 7.1°
0
51%
14:00
15°
1009.2 hPa 0.9 mm 6.5°
1
54%
20:00
14°
1008.2 hPa 0.3 mm 7.1°
2
56%
Midzomernacht Zaterdag 29 Jun
02:00
11°
1008.0 hPa 1.3 mm 7.8°
1
57%
08:00
13°
1007.0 hPa 1.7 mm 7.6°
0
60%
14:00
15°
1006.5 hPa 0.9 mm 7.8°
1
58%
20:00
14°
1006.4 hPa 1.4 mm 8.1°
2
64%
Midzomernacht Zondag 30 Jun
02:00
10°
1007.1 hPa 1.6 mm 8.0°
1
59%
08:00
12°
1006.5 hPa 1.1 mm 7.9°
1
58%
14:00
15°
1006.5 hPa 1.1 mm 8.1°
1
67%
20:00
15°
1006.6 hPa 0.8 mm 8.3°
1
64%
Midzomernacht Maandag 01 Jul
02:00
11°
1007.4 hPa 0.7 mm 8.2°
0
49%
08:00
13°
1007.0 hPa 0.7 mm 8.2°
0
56%
14:00
15°
1007.6 hPa 1.2 mm 8.1°
1
63%
20:00
14°
1008.2 hPa 1.4 mm 8.0°
2
65%
  CAPE Lifted Index Hail Supercell Tornado SRH 3km CL BTM PRES CL TOP PRES Swiss DWD icon SMHI TS
Midzomernacht Vandaag
02:00 0 J/kg 7.0 K 0 % 0 % 0 % 0 m²/s² 0 0 10.99 0
03:00 0 J/kg 7.0 K 0 % 0 % 0 % 0 m²/s² 0 0 10.99 0
04:00 0 J/kg 6.5 K 0 % 0 % 0 % 0 m²/s² 0 0 10.7 0
05:00 0 J/kg 5.7 K 0 % 0 % 0 % 0 m²/s² 0 0 9.9 0
06:00 0 J/kg 5.4 K 0 % 0 % 0 % 0 m²/s² 0 0 9.93 2
07:00 0 J/kg 5.5 K 0 % 0 % 0 % 0 m²/s² 0 0 10.36 2
08:00 0 J/kg 5.5 K 0 % 0 % 0 % 0 m²/s² 0 0 10.63 1
09:00 0 J/kg 6.3 K 0 % 0 % 0 % 0 m²/s² 0 0 11.7 1
10:00 0 J/kg 6.8 K 0 % 0 % 0 % 0 m²/s² 0 0 12.2 1
11:00 0 J/kg 7.6 K 0 % 0 % 0 % 0 m²/s² 0 0 12.97 0
12:00 0 J/kg 7.8 K 0 % 0 % 0 % 0 m²/s² 0 0 13.2 0
13:00 0 J/kg 7.2 K 0 % 0 % 0 % 0 m²/s² 0 0 12.45 0
14:00 0 J/kg 7.2 K 0 % 0 % 0 % 0 m²/s² 0 0 12.3 0
15:00 0 J/kg 7.7 K 0 % 0 % 0 % 0 m²/s² 0 0 12.8 1
16:00 0 J/kg 7.9 K 0 % 0 % 0 % 0 m²/s² 0 0 12.88 2
17:00 0 J/kg 7.9 K 0 % 0 % 0 % 0 m²/s² 0 0 12.88 2
18:00 0 J/kg 8.0 K 0 % 0 % 0 % 0 m²/s² 0 0 13.25 3
19:00 0 J/kg 8.1 K 0 % 0 % 0 % 0 m²/s² 0 0 13.5 3
20:00 0 J/kg 8.8 K 0 % 0 % 0 % 0 m²/s² 0 0 14.2 3
21:00 0 J/kg 9.5 K 0 % 0 % 0 % 0 m²/s² 0 0 14.75 3
22:00 0 J/kg 9.8 K 0 % 0 % 0 % 0 m²/s² 0 0 14.9 3
23:00 1 J/kg 9.4 K 0 % 0 % 0 % 0 m²/s² 0 0 14.26 3
Midzomernacht Morgen
00:00 4 J/kg 8.8 K 0 % 0 % 0 % 0 m²/s² 0 0 12.94 3
01:00 5 J/kg 8.1 K 0 % 0 % 0 % 0 m²/s² 0 0 11.22 3
02:00 3 J/kg 8.0 K 0 % 0 % 0 % 0 m²/s² 0 0 10.34 3
03:00 3 J/kg 8.0 K 0 % 0 % 0 % 0 m²/s² 0 0 9.53 3
04:00 2 J/kg 8.2 K 0 % 0 % 0 % 0 m²/s² 0 0 8.53 3
05:00 2 J/kg 8.9 K 0 % 0 % 0 % 0 m²/s² 0 0 9.41 3
06:00 2 J/kg 9.8 K 0 % 0 % 0 % 0 m²/s² 0 0 10.61 3
07:00 0 J/kg 8.9 K 0 % 0 % 0 % 0 m²/s² 0 0 10.64 3
08:00 0 J/kg 7.1 K 0 % 0 % 0 % 0 m²/s² 0 0 9.86 3
09:00 0 J/kg 5.0 K 0 % 0 % 0 % 0 m²/s² 0 0 10.04 61
10:00 0 J/kg 4.7 K 0 % 0 % 0 % 0 m²/s² 0 0 6.8 61
11:00 0 J/kg 4.7 K 0 % 0 % 0 % 0 m²/s² 0 0 5.42 3
12:00 0 J/kg 4.7 K 0 % 0 % 0 % 0 m²/s² 0 0 5.03 3
13:00 0 J/kg 5.3 K 0 % 0 % 0 % 0 m²/s² 0 0 5.63 3
14:00 0 J/kg 4.6 K 0 % 0 % 0 % 0 m²/s² 0 0 5.02 3
15:00 2 J/kg 2.5 K 0 % 0 % 0 % 0 m²/s² 0 0 2.83 61
16:00 1 J/kg 1.7 K 0 % 0 % 0 % 0 m²/s² 0 0 1.97 61
17:00 7 J/kg 1.5 K 0 % 0 % 0 % 0 m²/s² 0 0 1.98 61
18:00 37 J/kg 0.9 K 0 % 0 % 0 % 0 m²/s² 0 0 2.73 61
19:00 44 J/kg 0.8 K 0 % 0 % 0 % 0 m²/s² 0 0 2.51 61
20:00 39 J/kg 0.7 K 0 % 0 % 0 % 0 m²/s² 0 0 3.25 3
21:00 55 J/kg 0.3 K 0 % 0 % 0 % 0 m²/s² 0 0 2.49 3
22:00 75 J/kg -0.1 K 0 % 0 % 0 % 0 m²/s² 0 0 1.31 3
23:00 86 J/kg -0.3 K 0 % 0 % 0 % 0 m²/s² 0 0 0.63 2
Midzomernacht Woensdag 19 Jun
00:00 95 J/kg -0.3 K 0 % 0 % 0 % 0 m²/s² 0 0 0.72 2
01:00 59 J/kg -0.5 K 0 % 0 % 0 % 0 m²/s² 0 0 0.91 3
02:00 47 J/kg -0.4 K 0 % 0 % 0 % 0 m²/s² 0 0 0.95 3
03:00 66 J/kg 0.3 K 0 % 0 % 0 % 0 m²/s² 0 0 1.77 3
04:00 74 J/kg 0.5 K 0 % 0 % 0 % 0 m²/s² 0 0 2.9 3
05:00 29 J/kg 1.2 K 0 % 0 % 0 % 0 m²/s² 0 0 2.91 61
06:00 36 J/kg 1.8 K 0 % 0 % 0 % 0 m²/s² 0 0 2.76 61
07:00 49 J/kg 1.5 K 0 % 0 % 0 % 0 m²/s² 0 0 2.37 61
08:00 65 J/kg 0.9 K 0 % 0 % 0 % 0 m²/s² 0 0 2.07 61
09:00 117 J/kg 1.0 K 0 % 0 % 0 % 0 m²/s² 0 0 2.59 61
10:00 126 J/kg 0.3 K 0 % 0 % 0 % 0 m²/s² 0 0 1.17 80
11:00 220 J/kg -0.4 K 0 % 0 % 0 % 0 m²/s² 0 0 -0.01 80
12:00 212 J/kg -0.5 K 0 % 0 % 0 % 0 m²/s² 0 0 -0.14 80
13:00 199 J/kg -0.5 K 0 % 0 % 0 % 0 m²/s² 0 0 0.28 3
14:00 162 J/kg -0.5 K 0 % 0 % 0 % 0 m²/s² 0 0 -0.05 80
15:00 174 J/kg -0.7 K 0 % 0 % 0 % 0 m²/s² 0 0 -0.43 2
16:00 99 J/kg 0.0 K 0 % 0 % 0 % 0 m²/s² 0 0 0.57 3
17:00 200 J/kg -0.6 K 0 % 0 % 0 % 0 m²/s² 0 0 -0.06 80
18:00 277 J/kg -1.1 K 0 % 0 % 0 % 0 m²/s² 0 0 0.37 2
19:00 107 J/kg -0.3 K 0 % 0 % 0 % 0 m²/s² 0 0 1.59 2
20:00 60 J/kg 0.3 K 0 % 0 % 0 % 0 m²/s² 0 0 2.25 2
21:00 29 J/kg 1.2 K 0 % 0 % 0 % 0 m²/s² 0 0 3.21 2
22:00 12 J/kg 1.7 K 0 % 0 % 0 % 0 m²/s² 0 0 3.41 2
23:00 5 J/kg 2.3 K 0 % 0 % 0 % 0 m²/s² 0 0 3.83 2
Midzomernacht Donderdag 20 Jun
00:00 3 J/kg 2.5 K 0 % 0 % 0 % 0 m²/s² 0 0 4.51 2
01:00 2 J/kg 2.9 K 0 % 0 % 0 % 0 m²/s² 0 0 5.03 3
Temp Baro Wind Neerslag
  EWN Forecast EWN WRFDA DWD ICON FMI HIRLAM MET Norway GFS
Midzomernacht Vandaag
02:00 10.4° 1009.3 hPa 1.1 m/s 0.0 mm 12.0° 1006.2 hPa 3.7 m/s 0.0 mm 9.7° 1010.3 hPa 0.6 m/s -2.0 mm 9.5° 1009.8 hPa 1.1 m/s 0.0 mm 10.5° 1009.1 hPa 0.7 m/s 0.0 mm 11.2° 1009.7 hPa 0.7 m/s
05:00 11.0° 1008.9 hPa 0.6 m/s 0.0 mm 14.7° 1005.7 hPa 2.1 m/s 0.0 mm 9.8° 1010.2 hPa 0.6 m/s 0.0 mm 10.7° 1008.9 hPa 0.1 m/s 0.0 mm 10.8° 1009.0 hPa 0.5 m/s 0.0 mm 12.8° 1009.4 hPa 0.3 m/s
08:00 13.5° 1008.8 hPa 1.9 m/s 0.0 mm 16.3° 1005.6 hPa 2.7 m/s 0.0 mm 11.4° 1009.4 hPa 1.8 m/s 0.0 mm 13.7° 1008.1 hPa 2.4 m/s 0.0 mm 13.2° 1009.0 hPa 1.9 m/s 0.0 mm 13.1° 1008.8 hPa 2.9 m/s
11:00 14.5° 1009.2 hPa 4.1 m/s 0.0 mm 16.6° 1006.7 hPa 6.1 m/s 0.0 mm 13.5° 1009.9 hPa 2.5 m/s 0.0 mm 14.5° 1008.4 hPa 4.3 m/s 0.0 mm 14.8° 1009.3 hPa 4.9 m/s 0.0 mm 13.1° 1009.0 hPa 2.9 m/s
14:00 13.6° 1010.2 hPa 4.0 m/s 0.0 mm 16.0° 1006.5 hPa 6.5 m/s 0.0 mm 12.9° 1010.5 hPa 3.6 m/s 0.0 mm 14.3° 1008.8 hPa 3.8 m/s 0.0 mm 13.2° 1010.6 hPa 4.9 m/s 0.0 mm 12.7° 1008.4 hPa 2.9 m/s
17:00 13.1° 1010.4 hPa 3.7 m/s 0.0 mm 15.2° 1007.3 hPa 6.6 m/s 0.0 mm 11.6° 1010.6 hPa 3.4 m/s 0.0 mm 13.9° 1008.4 hPa 3.6 m/s 0.0 mm 13.1° 1010.9 hPa 3.9 m/s 0.0 mm 11.5° 1008.6 hPa 2.9 m/s
20:00 11.1° 1010.4 hPa 3.0 m/s 0.0 mm 12.1° 1007.0 hPa 5.9 m/s 0.0 mm 10.2° 1010.6 hPa 2.6 m/s 0.0 mm 11.3° 1007.9 hPa 2.9 m/s 0.0 mm 11.4° 1011.0 hPa 3.5 m/s 0.0 mm 10.5° 1007.9 hPa 2.4 m/s
23:00 9.1° 1010.5 hPa 2.1 m/s 0.0 mm 8.3° 1007.6 hPa 4.6 m/s 0.0 mm 9.2° 1010.5 hPa 1.8 m/s 0.0 mm 9.2° 1008.0 hPa 1.8 m/s 0.0 mm 9.2° 1011.3 hPa 2.8 m/s 0.0 mm 8.6° 1009.1 hPa 1.9 m/s
Midzomernacht Morgen
02:00 8.2° 1010.3 hPa 1.2 m/s 0.0 mm 7.3° 1007.5 hPa 2.5 m/s 0.0 mm 8.6° 1010.3 hPa 1.5 m/s 0.0 mm 8.0° 1007.3 hPa 1.1 m/s 0.0 mm 8.1° 1011.4 hPa 1.2 m/s 0.0 mm 7.8° 1009.0 hPa 1.4 m/s
05:00 8.5° 1009.5 hPa 0.9 m/s 0.0 mm 7.5° 1007.3 hPa 3.2 m/s 0.0 mm 9.0° 1009.4 hPa 0.3 m/s 0.0 mm 8.0° 1005.4 hPa 1.1 m/s 0.0 mm 8.6° 1010.8 hPa 0.8 m/s 0.0 mm 8.0° 1008.9 hPa 1.1 m/s
08:00 9.9° 1008.5 hPa 1.2 m/s 0.0 mm 9.6° 1006.5 hPa 3.0 m/s 0.0 mm 9.8° 1008.2 hPa 0.7 m/s 0.0 mm 10.0° 1003.8 hPa 1.6 m/s 0.0 mm 10.1° 1010.1 hPa 1.1 m/s 0.0 mm 9.5° 1008.2 hPa 0.2 m/s
11:00 10.9° 1008.4 hPa 1.3 m/s 0.0 mm 11.8° 1006.3 hPa 3.0 m/s 0.0 mm 10.9° 1008.1 hPa 0.8 m/s 0.7 mm 9.7° 1003.5 hPa 1.6 m/s 0.0 mm 11.8° 1009.9 hPa 1.3 m/s 0.0 mm 10.9° 1007.8 hPa 1.8 m/s
14:00 11.9° 1007.8 hPa 2.4 m/s 0.0 mm 15.0° 1005.5 hPa 5.9 m/s 0.0 mm 11.4° 1007.9 hPa 2.5 m/s 0.0 mm 10.1° 1003.5 hPa 2.0 m/s 0.0 mm 14.7° 1008.8 hPa 2.3 m/s 0.0 mm 12.1° 1007.2 hPa 2.0 m/s
17:00 11.8° 1007.7 hPa 2.1 m/s 0.0 mm 12.4° 1006.0 hPa 2.5 m/s 1.0 mm 9.5° 1008.2 hPa 2.3 m/s 1.6 mm 10.2° 1003.5 hPa 1.3 m/s 0.0 mm 15.3° 1008.2 hPa 2.4 m/s 0.0 mm 11.7° 1007.5 hPa 2.4 m/s
20:00 11.1° 1007.0 hPa 2.3 m/s 0.8 mm 12.9° 1004.9 hPa 3.7 m/s 2.3 mm 9.9° 1007.6 hPa 1.1 m/s 0.9 mm 9.6° 1003.6 hPa 2.5 m/s 0.0 mm 14.2° 1007.5 hPa 2.7 m/s 0.0 mm 10.6° 1007.1 hPa 3.1 m/s
23:00 11.5° 1007.3 hPa 1.5 m/s 0.0 mm 11.9° 1005.1 hPa 0.8 m/s 2.3 mm 9.5° 1007.4 hPa 0.8 m/s 0.0 mm 12.4° 1007.5 hPa 2.0 m/s 0.0 mm 9.6° 1007.7 hPa 0.9 m/s
Midzomernacht Woensdag 19 Jun
02:00 10.5° 1006.9 hPa 1.1 m/s 0.0 mm 11.6° 1004.4 hPa 2.4 m/s 2.4 mm 9.3° 1006.9 hPa 0.3 m/s 0.0 mm 10.6° 1007.4 hPa 1.1 m/s 0.0 mm 9.0° 1006.8 hPa 0.1 m/s
05:00 9.8° 1006.6 hPa 1.7 m/s 0.4 mm 11.4° 1004.9 hPa 4.8 m/s 2.9 mm 9.5° 1006.4 hPa 0.7 m/s 0.2 mm 9.6° 1007.8 hPa 1.6 m/s 0.4 mm 10.2° 1006.7 hPa 0.9 m/s
08:00 9.7° 1007.2 hPa 2.4 m/s 1.5 mm 12.1° 1004.6 hPa 3.1 m/s 3.4 mm 9.2° 1007.2 hPa 1.3 m/s 2.3 mm 9.0° 1008.5 hPa 2.9 m/s 1.3 mm 11.2° 1006.1 hPa 0.4 m/s
11:00 10.5° 1008.7 hPa 3.3 m/s 1.5 mm 13.7° 1005.1 hPa 4.8 m/s 3.6 mm 10.8° 1008.1 hPa 3.3 m/s 0.5 mm 9.6° 1009.8 hPa 2.9 m/s 0.0 mm 12.9° 1006.9 hPa 2.6 m/s
14:00 11.3° 1009.3 hPa 4.1 m/s 1.0 mm 15.5° 1004.7 hPa 4.1 m/s 3.6 mm 11.4° 1008.6 hPa 3.7 m/s 0.3 mm 10.3° 1010.7 hPa 4.2 m/s 0.0 mm 9.8° 1007.3 hPa 2.7 m/s
17:00 11.7° 1009.6 hPa 3.8 m/s 0.8 mm 13.2° 1006.0 hPa 4.1 m/s 5.3 mm 11.8° 1009.1 hPa 3.7 m/s 0.3 mm 11.3° 1010.8 hPa 3.8 m/s 9.7° 1008.4 hPa 1.4 m/s
20:00 12.2° 1009.8 hPa 3.7 m/s 0.0 mm 12.6° 1006.2 hPa 7.0 m/s 6.0 mm 11.3° 1009.4 hPa 2.9 m/s 0.1 mm 12.3° 1010.8 hPa 3.4 m/s 10.0° 1008.4 hPa 0.9 m/s
23:00 10.6° 1010.7 hPa 2.1 m/s 0.0 mm 10.0° 1007.7 hPa 3.3 m/s 6.1 mm 10.3° 1010.6 hPa 1.0 m/s 0.0 mm 11.1° 1011.4 hPa 2.1 m/s 10.0° 1009.4 hPa 0.9 m/s
Midzomernacht Donderdag 20 Jun
02:00 9.9° 1011.2 hPa 0.8 m/s 0.0 mm 9.4° 1007.5 hPa 1.6 m/s 6.3 mm 10.0° 1011.2 hPa 0.5 m/s 0.0 mm 9.9° 1012.0 hPa 0.8 m/s 9.6° 1009.5 hPa 1.7 m/s
05:00 10.8° 1011.2 hPa 1.1 m/s 6.1 mm 10.9° 1011.3 hPa 1.0 m/s 10.1° 1009.9 hPa 2.7 m/s 6.1 mm
08:00 11.3° 1010.9 hPa 1.1 m/s 6.3 mm 11.4° 1011.0 hPa 1.1 m/s 10.3° 1009.2 hPa 0.5 m/s 6.3 mm
11:00 13.9° 1009.7 hPa 1.2 m/s 6.3 mm 14.0° 1009.8 hPa 1.2 m/s 13.2° 1008.8 hPa 0.8 m/s 6.3 mm
14:00 16.5° 1008.4 hPa 1.4 m/s 6.3 mm 16.6° 1008.5 hPa 1.4 m/s 15.7° 1006.7 hPa 1.0 m/s 6.3 mm
17:00 16.6° 1006.9 hPa 1.7 m/s 6.3 mm 16.5° 1007.1 hPa 1.8 m/s 17.3° 1005.1 hPa 1.1 m/s 6.3 mm
20:00 16.3° 1005.5 hPa 2.1 m/s 6.6 mm 16.4° 1005.7 hPa 2.2 m/s 14.7° 1003.1 hPa 0.7 m/s 6.6 mm
23:00 14.8° 1004.8 hPa 2.4 m/s 6.7 mm 14.8° 1005.0 hPa 2.4 m/s 15.0° 1002.3 hPa 1.9 m/s 6.7 mm
Midzomernacht Vrijdag 21 Jun
02:00 13.1° 1004.0 hPa 2.6 m/s 7.1 mm 13.1° 1004.3 hPa 2.6 m/s 13.3° 1001.1 hPa 2.5 m/s 7.1 mm
05:00 13.2° 1004.5 hPa 2.5 m/s 7.7 mm 13.2° 1004.8 hPa 2.6 m/s 13.1° 1000.6 hPa 1.6 m/s 7.7 mm
08:00 13.3° 1005.0 hPa 2.6 m/s 12.5 mm 13.4° 1005.4 hPa 2.6 m/s 12.1° 1000.6 hPa 2.4 m/s 12.5 mm
11:00 13.6° 1006.0 hPa 2.8 m/s 18.4 mm 13.9° 1006.3 hPa 2.8 m/s 10.1° 1002.2 hPa 2.9 m/s 18.4 mm
14:00 14.0° 1007.0 hPa 3.0 m/s 20.4 mm 14.4° 1007.2 hPa 2.9 m/s 9.6° 1004.3 hPa 3.7 m/s 20.4 mm
17:00 13.6° 1007.5 hPa 2.6 m/s 21.0 mm 14.0° 1007.5 hPa 2.5 m/s 9.6° 1006.5 hPa 3.4 m/s 21.0 mm
20:00 13.2° 1007.9 hPa 2.2 m/s 21.2 mm 13.6° 1007.9 hPa 2.1 m/s 9.4° 1008.2 hPa 2.8 m/s 21.2 mm
23:00 11.9° 1007.0 hPa 1.6 m/s 21.2 mm 12.2° 1006.8 hPa 1.6 m/s 8.5° 1009.5 hPa 1.6 m/s 21.2 mm
Midzomernacht Zaterdag 22 Jun
02:00 10.6° 1006.1 hPa 1.0 m/s 21.2 mm 10.8° 1005.7 hPa 1.0 m/s 7.8° 1010.4 hPa 0.9 m/s 21.2 mm
05:00 10.7° 1005.5 hPa 1.8 m/s 21.2 mm 10.9° 1005.0 hPa 1.9 m/s 8.9° 1010.6 hPa 1.6 m/s 21.2 mm
08:00 10.9° 1004.9 hPa 2.5 m/s 21.2 mm 10.9° 1004.4 hPa 2.7 m/s 10.6° 1010.2 hPa 0.4 m/s 21.2 mm
11:00 11.6° 1004.6 hPa 2.7 m/s 21.2 mm 11.6° 1004.1 hPa 3.0 m/s 12.4° 1010.1 hPa 0.3 m/s 21.2 mm
14:00 12.4° 1004.4 hPa 3.0 m/s 21.2 mm 12.2° 1003.9 hPa 3.2 m/s 14.3° 1010.1 hPa 1.3 m/s 21.2 mm
17:00 12.0° 1005.7 hPa 3.2 m/s 21.2 mm 11.8° 1005.2 hPa 3.4 m/s 14.7° 1010.2 hPa 1.5 m/s 21.2 mm
20:00 11.5° 1007.0 hPa 3.6 m/s 21.3 mm 11.4° 1006.6 hPa 3.6 m/s 12.6° 1011.0 hPa 3.2 m/s 21.3 mm
23:00 10.2° 1008.2 hPa 3.3 m/s 24.6 mm 10.3° 1007.9 hPa 3.4 m/s 9.4° 1012.1 hPa 2.4 m/s 24.6 mm
Midzomernacht Zondag 23 Jun
02:00 9.2° 1009.5 hPa 3.2 m/s 27.2 mm 9.2° 1009.1 hPa 3.2 m/s 9.2° 1013.8 hPa 2.6 m/s 27.2 mm
05:00 9.2° 1009.9 hPa 3.7 m/s 29.9 mm 9.3° 1009.5 hPa 3.8 m/s 8.4° 1015.0 hPa 3.7 m/s 29.9 mm
08:00 9.3° 1010.4 hPa 4.0 m/s 30.6 mm 9.4° 1009.8 hPa 4.3 m/s 8.4° 1016.7 hPa 1.1 m/s 30.6 mm
11:00 10.1° 1012.9 hPa 4.5 m/s 31.0 mm 10.2° 1012.5 hPa 4.7 m/s 8.2° 1018.0 hPa 2.8 m/s 31.0 mm
14:00 10.9° 1015.5 hPa 4.8 m/s 31.5 mm 11.1° 1015.1 hPa 5.1 m/s 8.7° 1019.3 hPa 1.5 m/s 31.5 mm
17:00 10.7° 1016.8 hPa 4.4 m/s 31.5 mm 10.8° 1016.5 hPa 4.7 m/s 9.6° 1019.4 hPa 1.5 m/s 31.5 mm
20:00 10.4° 1018.1 hPa 4.0 m/s 31.5 mm 10.4° 1018.0 hPa 4.3 m/s 10.3° 1019.7 hPa 0.5 m/s 31.5 mm
23:00 9.5° 1018.9 hPa 3.3 m/s 31.5 mm 9.6° 1018.8 hPa 3.5 m/s 9.2° 1020.1 hPa 1.2 m/s 31.5 mm
Midzomernacht Maandag 24 Jun
02:00 8.6° 1019.6 hPa 2.5 m/s 31.5 mm 8.7° 1019.5 hPa 2.7 m/s 7.5° 1020.6 hPa 0.4 m/s 31.5 mm
08:00 9.5° 1020.6 hPa 2.5 m/s 31.6 mm 9.5° 1020.7 hPa 2.6 m/s 9.2° 1019.7 hPa 1.2 m/s 31.6 mm
14:00 11.5° 1023.6 hPa 2.9 m/s 32.5 mm 11.8° 1024.0 hPa 3.1 m/s 8.4° 1019.8 hPa 1.1 m/s 32.5 mm
20:00 11.5° 1022.8 hPa 2.1 m/s 32.7 mm 11.7° 1023.0 hPa 2.1 m/s 9.2° 1020.3 hPa 2.2 m/s 32.7 mm
Midzomernacht Dinsdag 25 Jun
02:00 9.0° 1024.8 hPa 1.0 m/s 32.8 mm 9.2° 1025.1 hPa 1.0 m/s 6.9° 1021.0 hPa 1.3 m/s 32.8 mm
08:00 10.4° 1022.7 hPa 1.7 m/s 32.9 mm 10.6° 1022.9 hPa 1.8 m/s 8.6° 1020.4 hPa 1.0 m/s 32.9 mm
14:00 12.7° 1022.8 hPa 2.8 m/s 33.7 mm 13.0° 1023.0 hPa 2.8 m/s 9.0° 1020.8 hPa 3.3 m/s 33.7 mm
20:00 12.2° 1022.3 hPa 2.3 m/s 34.5 mm 12.6° 1022.4 hPa 2.3 m/s 7.9° 1021.1 hPa 1.8 m/s 34.5 mm
Midzomernacht Woensdag 26 Jun
02:00 8.7° 1022.7 hPa 1.2 m/s 35.0 mm 8.9° 1022.8 hPa 1.3 m/s 6.5° 1021.2 hPa 0.6 m/s 35.0 mm
08:00 9.5° 1019.3 hPa 2.2 m/s 35.1 mm 9.7° 1019.3 hPa 2.3 m/s 7.9° 1019.7 hPa 0.6 m/s 35.1 mm
14:00 10.3° 1018.8 hPa 2.3 m/s 35.5 mm 10.4° 1018.8 hPa 2.3 m/s 35.5 mm
20:00 12.5° 1017.0 hPa 1.8 m/s 0.9 mm
Midzomernacht Donderdag 27 Jun
02:00 9.0° 1016.9 hPa 0.7 m/s 1.3 mm
08:00 11.1° 1015.4 hPa 0.5 m/s 1.0 mm
14:00 14.4° 1013.9 hPa 1.0 m/s 0.9 mm
20:00 13.9° 1012.5 hPa 1.0 m/s 1.0 mm
Midzomernacht Vrijdag 28 Jun
02:00 9.9° 1012.0 hPa 0.4 m/s 0.7 mm
08:00 12.1° 1010.4 hPa 0.2 m/s 0.7 mm
14:00 15.4° 1009.2 hPa 0.9 m/s 0.9 mm
20:00 14.4° 1008.2 hPa 1.7 m/s 0.3 mm
Midzomernacht Zaterdag 29 Jun
02:00 10.5° 1008.0 hPa 0.6 m/s 1.3 mm
08:00 12.6° 1007.0 hPa 0.2 m/s 1.7 mm
14:00 15.4° 1006.5 hPa 1.3 m/s 0.9 mm
20:00 13.8° 1006.4 hPa 1.9 m/s 1.4 mm
Midzomernacht Zondag 30 Jun
02:00 10.0° 1007.1 hPa 0.9 m/s 1.6 mm
08:00 11.9° 1006.5 hPa 0.7 m/s 1.1 mm
14:00 15.1° 1006.5 hPa 1.2 m/s 1.1 mm
20:00 14.5° 1006.6 hPa 1.4 m/s 0.8 mm
Midzomernacht Maandag 01 Jul
02:00 10.7° 1007.4 hPa 0.4 m/s 0.7 mm
08:00 12.9° 1007.0 hPa 0.1 m/s 0.7 mm
14:00 15.3° 1007.6 hPa 1.2 m/s 1.2 mm
20:00 13.5° 1008.2 hPa 1.5 m/s 1.4 mm
FMI Hirlam - 7.5 km EWN WRFDA - 12 km DWD ICON - 7 km GFS - 25 km Basiskaart






























































Updatetijd (Europe/Amsterdam) Resolutie Lengte Stap
FMI Hirlam 01:15, 07:15, 13:15, 19:15 7.5 km 49h 1h
EWN WRFDA 22:15, 04:15, 10:15, 16:15 12 km 73h 1h
DWD ICON 23:45, 05:45, 11:45, 17:45 7 km 75h 1h
GFS 20:30, 02:30, 08:30, 14:30 25 km 237h 3h
30+ mm
25-30 mm
20-25 mm
15-20 mm
10-15 mm
6-10 mm
4-6 mm
2-4 mm
1-2 mm
0.5-1 mm
0.2-0.5 mm
0.1-0.2 mm
30+ mm
25-30 mm
20-25 mm
15-20 mm
10-15 mm
6-10 mm
4-6 mm
2-4 mm
1-2 mm
0.5-1 mm
0.2-0.5 mm
0.1-0.2 mm
Sneeuwval
Natte sneeuw
Hagel
Vorst
30+ mm
25-30 mm
20-25 mm
15-20 mm
10-15 mm
6-10 mm
4-6 mm
2-4 mm
1-2 mm
0.5-1 mm
0.2-0.5 mm
0.1-0.2 mm
Sneeuwval
Natte sneeuw
Hagel
Vorst
Onweer
50 mm
40 mm
30 mm
26 mm
22 mm
18 mm
14 mm
10 mm
9 mm
8 mm
7 mm
6 mm
5 mm
4.5 mm
4 mm
3.5 mm
3 mm
2.5 mm
2 mm
1.5 mm
1 mm
0.8 mm
0.6 mm
0.4 mm
0.2 mm
0.05 mm
35°
30°
25°
20°
15°
10°
-5°
-10°
-15°
-20°
-25°
-30°
-35°
120> km/h
105 km/h
90 km/h
75 km/h
60 km/h
50 km/h
40 km/h
30 km/h
20 km/h
10 km/h
0 km/h
2600 J/kg
2400 J/kg
2200 J/kg
2000 J/kg
1800 J/kg
1600 J/kg
1400 J/kg
1200 J/kg
1000 J/kg
800 J/kg
600 J/kg
400 J/kg
200 J/kg
70 dBZ
65 dBZ
60 dBZ
55 dBZ
50 dBZ
45 dBZ
40 dBZ
35 dBZ
30 dBZ
25 dBZ
20 dBZ
15 dBZ
10 dBZ
5 dBZ
-1 K
-2 K
-3 K
-4 K
-5 K
-6 K
-7 K
-8 K
-9 K
950 m²/s²
900 m²/s²
850 m²/s²
800 m²/s²
750 m²/s²
700 m²/s²
650 m²/s²
600 m²/s²
550 m²/s²
500 m²/s²
450 m²/s²
400 m²/s²
350 m²/s²
300 m²/s²
250 m²/s²
200 m²/s²
150 m²/s²
100 m²/s²
46 m/s
44 m/s
42 m/s
40 m/s
38 m/s
36 m/s
34 m/s
32 m/s
30 m/s
28 m/s
26 m/s
24 m/s
22 m/s
20 m/s
16 m/s
12 m/s
8 m/s
4 m/s
30 m/s
28 m/s
26 m/s
24 m/s
22 m/s
20 m/s
18 m/s
16 m/s
14 m/s
12 m/s
10 m/s
8 m/s
6 m/s
4 m/s
2 m/s
3.0
2.8
2.6
2.4
2.2
2.0
1.8
1.6
1.4
1.2
1.0
0.8
0.6
0.4
0.2
15
14
13
12
11
10
9
8
7
6
5
4
3
2
1
90%
80%
70%
60%
50%
40%
30%
20%
10%
42
40
38
36
34
32
30
28
26
24
22
20
18
16
14
12
90+ cm
80-90 cm
70-80 cm
60-70 cm
50-60 cm
40-50 cm
30-40 cm
20-30 cm
10-20 cm
1-10 cm
Sneeuwval
Natte sneeuw
Regen
>120 mm
115 mm
110 mm
105 mm
100 mm
95 mm
90 mm
85 mm
80 mm
75 mm
70 mm
65 mm
60 mm
55 mm
50 mm
45 mm
45 mm
40 mm
35 mm
30 mm
25 mm
20 mm
15 mm
10 mm
5 mm
0.1 mm
960 hPa
880 hPa
800 hPa
720 hPa
640 hPa
560 hPa
584 gpdm
568 gpdm
552 gpdm
536 gpdm
520 gpdm
504 gpdm
488 gpdm
Extreem zwaar Noodweer Kans op onweer
15% 15% 5% 50% 15%

Dag




Kaart






35°
30°
25°
20°
15°
10°